Weather Roundup
Issued by NWS Chicago, IL

Home | Current Version | Previous Version | Graphics & Text | Print | Product List | Glossary On
Versions: 1 2 3 4 5 6 7 8 9 10 11 12 13 14 15 16 17 18 19 20 21 22 23 24 25 26 27 28 29 30 31 32 33 34 35 36 37 38 39 40 41 42 43 44 45 46 47 48 49 50
000
NZUS59 KLOT 071206
HRRLOT

CHICAGO AREA WEATHER ROUNDUP
NATIONAL WEATHER SERVICE CHICAGO/ROMEOVILLE IL
700 AM CDT TUE JUL 07 2015

NOTE: "FAIR" INDICATES FEW OR NO CLOUDS BELOW 12,000 FEET WITH NO
SIGNIFICANT WEATHER AND/OR OBSTRUCTIONS TO VISIBILITY.

* THESE STATIONS ARE NOT UNDER NWS QUALITY CONTROL. THEY ALSO MAY NOT
  REPORT WEATHER SUCH AS PRECIPITATION OR FOG.

ILZ005-006-012>014-019>023-071300-
NORTHEAST ILLINOIS

CITY           SKY/WX    TMP DP  RH WIND       PRES   REMARKS
OHARE          LGT RAIN  58  56  93 NE18      29.94R VSB 1
6HR MIN TEMP:  58; 6HR MAX TEMP:  71; 6HR PCP:  0.24;

MIDWAY         LGT RAIN  61  56  83 N17G25    29.93R FOG
6HR MIN TEMP:  61; 6HR MAX TEMP:  74; 6HR PCP:  0.20;

AURORA         CLOUDY    61  57  87 NE13      29.94R FOG
6HR MIN TEMP:  61; 6HR MAX TEMP:  71; 6HR PCP:  0.08;

WAUKEGAN       CLOUDY    57  55  93 N9G21     29.94R FOG
6HR MIN TEMP:  57; 6HR MAX TEMP:  71; 6HR PCP:  0.06;

DUPAGE AIRPORT LGT RAIN  60  58  92 NE12      29.94R FOG
6HR MIN TEMP:  59; 6HR MAX TEMP:  71; 6HR PCP:  0.22;

WHEELING       LGT RAIN  58  55  90 N14       29.96R FOG
6HR MIN TEMP:  58; 6HR MAX TEMP:  72; 6HR PCP:  0.13;

NORTHERLY IS     N/A     58  56  93 N17         N/A
$$

WIZ051-052-058>065-066-070>072-071300-
SOUTHEAST WISCONSIN

CITY           SKY/WX    TMP DP  RH WIND       PRES   REMARKS
MILWAUKEE      CLOUDY    58  53  84 N13G18    29.96R
6HR MIN TEMP:  57; 6HR MAX TEMP:  72; 6HR PCP:  0.05;

KENOSHA*       CLOUDY    58  52  80 N16G23    29.96R
RACINE*        CLOUDY    57  51  80 N17G28    29.97R
WAUKESHA       DRIZZLE   55  54  94 N9G16     29.98R FOG
$$

INZ001>003-010>013-019-020-071300-
NORTHWEST INDIANA

CITY           SKY/WX    TMP DP  RH WIND       PRES   REMARKS
GARY*          LGT RAIN N/A N/A N/A N17G33    29.93R
MICHIGAN CITY* NOT AVBL
RENSSELAER*    NOT AVBL
$$

LMZ740>746-071300-
SOUTHERN LAKE MICHIGAN

STATION/POSITION TIME  SKY/WX   TEMP WIND        PRES    VSBY
                                AIR  DIR/SP/G
                 (UTC)          (F)  (DEG/KT/KT) (MB)    (MI)
HARRISON CRIB    1100            59  350/ 27/ 33   N/A
BURNHAM HARBOR   1200            58  340/ 21/ 27   N/A
CALUMET HARBOR   1100            60  340/ 14/ 22   N/A
BURNS HARBOR     1100            62  360/ 20     1012.2R
MICHIGAN CITY    1100            63  330/ 26/ 30   N/A
$$

ABBREVIATIONS USED IN REMARKS
   TC - TEMPERATURE IN CELSIUS
  WCI - WIND CHILL INDEX
   HX - HEAT INDEX
  VSB - VISIBILITY
$$



USA.gov is the U.S. government's official web portal to all federal, state and local government web resources and services.